Weather History for Aden, Yemen

Change the Weather History Date:

Saturday, February 16, 2013

  Actual Average Record
Temperature  
Mean Temperature 75 °F -  
Max Temperature 84 °F 82 °F 87 °F (1999)
Min Temperature 66 °F 77 °F 66 °F (2013)
Cooling Degree Days 10    
Growing Degree Days 25 (Base 50)    
Moisture  
Dew Point 63 °F    
Average Humidity 60    
Maximum Humidity 78    
Minimum Humidity 39    
Precipitation  
Precipitation 0.00 in - - ()
Sea Level Pressure  
Sea Level Pressure 29.93 in    
Wind  
Wind Speed 6 mph ()    
Max Wind Speed 15 mph    
Max Gust Speed -    
Visibility 6.3 miles    
Events      
Averages and records for this station are not official NWS values.
T = Trace of Precipitation, MM = Missing Value Source: Averaged Metar Reports

Daily Weather History Graph

Daily Weather History Graph

Search for Another Location

Airport:

Trip Planner

Search our weather history database for the weather conditions in past years. The results will help you decide how hot, cold, wet, or windy it might be!

Date:

Astronomy

Feb. 16, 2013 Rise Set
Actual Time 6:21 AM AST 6:06 PM AST
Civil Twilight 6:00 AM AST 6:27 PM AST
Nautical Twilight 5:35 AM AST 6:52 PM AST
Astronomical Twilight 5:10 AM AST 7:17 PM AST
Moon 10:32 AM AST (2/16) 11:26 PM AST (2/16)
Length of Visible Light 12h 27m
Length of Day
11h 44m
Waxing Crescent, 36% of the Moon is Illuminated
Feb 16
Waxing Crescent
Feb 17
First Quarter
Feb 25
Full
Mar 5
Last Quarter
Mar 11
New

Hourly Weather History & Observations

Time (AST) Temp. Heat Index Dew Point Humidity Pressure Visibility Wind Dir Wind Speed Gust Speed Precip Events Conditions
12:00 AM 74 °F - 65 °F 68% 29.97 in 6 mi NNE 5.8 mph - -   Scattered Clouds
12:00 AM 75.2 °F - 66.2 °F 73% 29.95 in 6.2 mi NNE 5.8 mph - N/A   Partly Cloudy
1:00 AM 73.4 °F - 64.4 °F 73% 29.95 in 6.2 mi Variable 2.3 mph - N/A   Partly Cloudy
2:00 AM 73.4 °F - 66.2 °F 78% 29.92 in 6.2 mi NE 3.5 mph - N/A   Partly Cloudy
3:00 AM 71 °F - 65 °F 75% 29.92 in 6 mi 2.3 mph - -   Scattered Clouds
3:00 AM 71.6 °F - 64.4 °F 78% 29.92 in 6.2 mi Variable 2.3 mph - N/A   Partly Cloudy
4:00 AM 69.8 °F - 62.6 °F 78% 29.92 in 6.2 mi Variable 2.3 mph - N/A   Partly Cloudy
5:00 AM 69.8 °F - 60.8 °F 73% 29.92 in 6.2 mi NNE 3.5 mph - N/A   Partly Cloudy
6:00 AM 71 °F - 60 °F 59% 29.94 in 6 mi NNE 4.6 mph - -   Partly Cloudy
6:00 AM 71.6 °F - 59.0 °F 64% 29.92 in 6.2 mi NNE 4.6 mph - N/A   Scattered Clouds
7:00 AM 68.0 °F - 57.2 °F 68% 29.95 in 6.2 mi Variable 2.3 mph - N/A   Partly Cloudy
8:00 AM 71.6 °F - 57.2 °F 60% 29.98 in - NE 3.5 mph - N/A   Clear
9:00 AM 80 °F - 64 °F 48% 30.00 in 6 mi NE 6.9 mph - -  
9:00 AM 80.6 °F 82.3 °F 64.4 °F 58% 29.98 in - NE 6.9 mph - N/A   Clear
10:00 AM 80.6 °F 82.3 °F 64.4 °F 58% 30.01 in - East 10.4 mph - N/A   Clear
11:00 AM 80.6 °F 82.7 °F 66.2 °F 61% 29.98 in 6.2 mi ESE 11.5 mph - N/A   Unknown
12:00 PM 82 °F - 65 °F 46% 29.97 in 6 mi ESE 12.7 mph - -  
12:00 PM 82.4 °F 83.9 °F 64.4 °F 54% 29.95 in - ESE 12.7 mph - N/A   Clear
1:00 PM 82.4 °F 83.9 °F 64.4 °F 54% 29.92 in - ESE 11.5 mph - N/A   Clear
2:00 PM 82.4 °F 83.4 °F 62.6 °F 51% 29.89 in - ESE 13.8 mph - N/A   Clear
3:00 PM 82 °F - 61 °F 39% 29.89 in 7 mi ESE 15.0 mph - -  
3:00 PM 82.4 °F 82.9 °F 60.8 °F 48% 29.89 in - ESE 15.0 mph - N/A   Clear
4:00 PM 82.4 °F 82.9 °F 60.8 °F 48% 29.86 in - ESE 15.0 mph - N/A   Clear
5:00 PM 80.6 °F 81.8 °F 62.6 °F 54% 29.86 in - SE 13.8 mph - N/A   Clear
6:00 PM 80 °F - 62 °F 44% 29.89 in 9 mi East 10.4 mph - -  
6:00 PM 80.6 °F 81.8 °F 62.6 °F 54% 29.89 in - East 10.4 mph - N/A   Clear
7:00 PM 78.8 °F - 62.6 °F 57% 29.89 in - East 12.7 mph - N/A   Clear
8:00 PM 78.8 °F - 62.6 °F 57% 29.92 in - East 11.5 mph - N/A   Clear
9:00 PM 78 °F - 65 °F 55% 29.95 in 6 mi East 9.2 mph - -  
9:00 PM 78.8 °F - 64.4 °F 61% 29.95 in - East 9.2 mph - N/A   Clear
10:00 PM 77.0 °F - 64.4 °F 65% 29.95 in - East 6.9 mph - N/A   Clear
11:00 PM 75.2 °F - 62.6 °F 65% 29.95 in - North 5.8 mph - N/A   Clear